Location: Ambatotampy
(18.8181°S, 47.6186°E)
Time: 02:42:40
(UTC+00:00)

COSMOS 2251 DEB - Visible Passes

Search period start: 26 July 2021 00:00
Search period end: 05 August 2021 00:00
Orbit: 583 x 708 km, 74.0° (Epoch: 24 July)

Date Brightness Start Highest point End Pass type
(mag) Time Alt. Az. Time Alt. Az. Time Alt. Az.
26 Jul ? 01:49:52 10° N 01:54:36 68° ENE 01:59:31 10° SSE visible
27 Jul ? 00:39:57 10° ENE 00:41:28 11° E 00:42:59 10° ESE visible
27 Jul ? 02:15:53 10° NW 02:20:24 41° WSW 02:25:04 10° S visible
28 Jul ? 01:02:41 10° NNE 01:06:59 33° E 01:11:24 10° SE visible
28 Jul ? 02:43:37 10° WNW 02:46:23 15° WSW 02:49:10 10° SW visible
29 Jul ? 01:32:28 80° WNW 01:32:40 83° WSW 01:37:39 10° SSE visible
30 Jul ? 02:02:00 14° SSW 02:02:00 14° SSW 02:02:48 10° SSW visible
